We konden geen weer-waarchuwingen ophalen. Ga rechtstreeks naar de Meteoalarm site : www.meteoalarm.eu en controleer daar .



Onweer radar Meer informatie blitzortung!


Regen radar Meer informatie rain snow radar


Bezoek onze andere website:

Template documentation
and downloads

And another site



15 daagse weersverwachting La Chaux-de-Fonds (CH)

  • Overzicht
  • Per uur
  • 15 dagen
  • Extra
  • Vergelijk
  • Kaarten
  • Dagkaart
  • Meer »
  • Info
  • Statistieken
  • Directe link
    Temp 6h Neerslag Wind  
 06:35     20:38    Daglengte: 14:03 Morgen
02:00
15°
5.8 mm
1
08:00
14°
27.2 mm
1
14:00
17°
32.0 mm
3
warningclass
20:00
16°
20.8 mm
2
warningclass
 06:37     20:36    Daglengte: 13:59 Vrijdag 19 Aug
02:00
15°
25.6 mm
2
warningclass
08:00
14°
32.2 mm
3
14:00
17°
4.9 mm
5
20:00
17°
 
3
 06:38     20:35    Daglengte: 13:57 Zaterdag 20 Aug
02:00
13°
23.3 mm
2
08:00
13°
 
1
14:00
18°
41.8 mm
3
20:00
16°
32.5 mm
1
Locatie info
Region: La Chaux-de-Fonds
Latitude: 47.1032°N
Longitude: 6.8327°E
995 masl
Postcode: 2300
Temp/Neerslag /Baro Onweer/Dauwpunt
    Temp Baro 1h Neerslag Dauwpunt Wind UV Bewolking  
 06:35     20:38    Daglengte: 14:03 Morgen
00:00
15°
1013.3 hPa 5.8 mm
49%
13.4°
2
Windvlaag: 4.2 m/s
70%
01:00
15°
1013.0 hPa
28%
13.0°
2
Windvlaag: 4.6 m/s
77%
02:00
15°
1013.1 hPa
33%
13.3°
1
Windvlaag: 4.1 m/s
82%
03:00
15°
1013.2 hPa
74%
13.1°
1
Windvlaag: 3.3 m/s
75%
04:00
15°
1013.1 hPa 4.5 mm
77%
12.9°
1
Windvlaag: -0.1 m/s
77%
05:00
14°
1012.8 hPa 5.2 mm
82%
13.1°
1
Windvlaag: 1.1 m/s
86%
06:00
14°
1012.7 hPa 5.5 mm
75%
13.2°
1
Windvlaag: 2.5 m/s
73%
07:00
14°
1012.8 hPa 6.0 mm
81%
13.2°
1
Windvlaag: 2.5 m/s
86%
08:00
14°
1013.1 hPa 5.9 mm
82%
13.6°
1
Windvlaag: 0.2 m/s
86%
09:00
15°
1013.0 hPa 5.7 mm
82%
14.1°
1
Windvlaag: 0.3 m/s
86%
10:00
15°
1013.2 hPa 5.4 mm
82%
13.8°
2
Windvlaag: 0.3 m/s
86%
11:00
16°
1013.4 hPa 5.4 mm
82%
13.8°
2
Windvlaag: -0.1 m/s
86%
12:00
16°
1013.4 hPa 5.1 mm
82%
14.0°
2
Windvlaag: -0.3 m/s
86%
13:00
17°
1013.0 hPa 5.2 mm
82%
12.8°
2
Windvlaag: -0.1 m/s
86%
14:00
17°
1012.9 hPa 5.3 mm
82%
13.3°
3
Windvlaag: 0 m/s
85% warningclass
15:00
17°
1012.8 hPa 5.1 mm
82%
13.2°
3
Windvlaag: -0.5 m/s
84%
16:00
17°
1012.5 hPa 5.1 mm
82%
11.9°
3
Windvlaag: -1.6 m/s
83% warningclass
17:00
17°
1012.3 hPa
82%
12.2°
3
Windvlaag: -1.6 m/s
82% warningclass
18:00
17°
1012.5 hPa
82%
12.6°
3
Windvlaag: -1.4 m/s
84% warningclass
19:00
16°
1013.0 hPa 5.4 mm
82%
12.5°
3
Windvlaag: -2.2 m/s
85% warningclass
20:00
16°
1013.2 hPa 5.2 mm
82%
12.1°
2
Windvlaag: -2 m/s
86% warningclass
21:00
15°
1013.4 hPa 5.1 mm
82%
12.0°
2
Windvlaag: -0.2 m/s
86%
22:00
15°
1013.4 hPa 5.0 mm
81%
12.1°
2
Windvlaag: 0.2 m/s
86%
23:00
15°
1013.8 hPa
80%
11.6°
2
Windvlaag: 1.6 m/s
86%
 06:37     20:36    Daglengte: 13:59 Vrijdag 19 Aug
00:00
15°
1014.3 hPa 4.9 mm
81%
11.8°
2
Windvlaag: 1.6 m/s
86%
01:00
15°
1014.4 hPa 5.2 mm
82%
11.4°
2
Windvlaag: 1.9 m/s
86%
02:00
15°
1014.2 hPa 5.5 mm
82%
11.7°
2
Windvlaag: 1.4 m/s
86% warningclass
03:00
15°
1014.2 hPa 5.7 mm
82%
12.2°
2
Windvlaag: 1.2 m/s
86% warningclass
04:00
15°
1014.0 hPa 5.6 mm
82%
12.6°
3
Windvlaag: 0.7 m/s
86% warningclass
05:00
15°
1014.0 hPa 5.3 mm
82%
12.9°
3
Windvlaag: 0 m/s
86%
06:00
14°
1014.5 hPa 5.4 mm
82%
13.2°
2
Windvlaag: 0 m/s
85% warningclass
07:00
14°
1014.9 hPa 5.2 mm
80%
13.2°
2
Windvlaag: 0.3 m/s
86%
08:00
14°
1015.4 hPa 5.0 mm
80%
13.5°
3
Windvlaag: -1.5 m/s
76%
09:00
15°
1015.8 hPa 4.9 mm
77%
13.7°
3
Windvlaag: -1.7 m/s
66%
10:00
15°
1016.2 hPa
44%
13.9°
3
Windvlaag: -1.6 m/s
66%
11:00
15°
1016.8 hPa
41%
14.0°
3
Windvlaag: -1.3 m/s
64%
12:00
15°
1017.1 hPa
33%
14.1°
4
Windvlaag: -3.6 m/s
57%
13:00
16°
1016.9 hPa
28%
14.6°
4
Windvlaag: -4.5 m/s
36%
14:00
17°
1016.8 hPa
23%
15.2°
5
Windvlaag: -4.8 m/s
47%
15:00
18°
1017.0 hPa
28%
14.8°
5
Windvlaag: -4.9 m/s
33%
16:00
18°
1017.0 hPa
27%
14.2°
5
Windvlaag: -5 m/s
29%
17:00
18°
1017.3 hPa
23%
10.9°
4
Windvlaag: -5 m/s
33%
18:00
18°
1017.6 hPa
21%
10.8°
4
Windvlaag: -4.7 m/s
27%
19:00
17°
1018.0 hPa
21%
10.7°
4
Windvlaag: -4.4 m/s
16%
20:00
17°
1018.2 hPa
21%
12.6°
3
Windvlaag: -4 m/s
23%
21:00
15°
1018.9 hPa
21%
11.6°
2
Windvlaag: -3.6 m/s
40%
22:00
14°
1019.6 hPa
21%
10.8°
2
Windvlaag: -1.9 m/s
31%
23:00
14°
1019.8 hPa 7.8 mm
21%
10.3°
2
Windvlaag: -0.8 m/s
25%
 06:38     20:35    Daglengte: 13:57 Zaterdag 20 Aug
00:00
13°
1020.0 hPa 7.8 mm
21%
9.3°
2
Windvlaag: -0.6 m/s
21%
01:00
13°
1019.9 hPa 7.7 mm
21%
8.3°
2
Windvlaag: -0.1 m/s
15%
02:00
13°
1019.6 hPa
21%
8.0°
2
Windvlaag: 0.3 m/s
7%
03:00
13°
1019.4 hPa
25%
8.4°
2
Windvlaag: 0.3 m/s
6%
04:00
13°
1019.4 hPa
27%
9.0°
2
Windvlaag: -0.1 m/s
26%
05:00
12°
1019.3 hPa
24%
8.9°
2
Windvlaag: 0.1 m/s
22%
06:00
12°
1019.2 hPa
22%
8.3°
1
Windvlaag: 0.4 m/s
13%
07:00
13°
1019.7 hPa
21%
9.2°
2
Windvlaag: 1.8 m/s
35%
08:00
13°
1019.9 hPa
21%
12.3°
1
Windvlaag: 2.5 m/s
50%
09:00
14°
1019.9 hPa
29%
14.1°
1
Windvlaag: 2 m/s
50%
10:00
16°
1019.8 hPa
85%
14.8°
1
Windvlaag: -1.6 m/s
39%
11:00
17°
1019.9 hPa 10.1 mm
94%
15.6°
1
Windvlaag: -2.3 m/s
51%
12:00
17°
1019.8 hPa 10.3 mm
97%
16.3°
2
Windvlaag: 2.3 m/s
71%
13:00
18°
1019.8 hPa 10.5 mm
95%
15.2°
2
Windvlaag: 3.9 m/s
58%
14:00
18°
1019.7 hPa 10.8 mm
99%
14.1°
3
Windvlaag: 4 m/s
93%
15:00
18°
1019.7 hPa 10.9 mm
100%
13.0°
3
Windvlaag: 3.8 m/s
99%
16:00
17°
1019.8 hPa 11.1 mm
100%
11.9°
3
Windvlaag: 4.2 m/s
97% warningclass
17:00
17°
1019.5 hPa 10.5 mm
100%
11.5°
3
Windvlaag: 4.4 m/s
95%
18:00
17°
1019.6 hPa
87%
11.5°
2
Windvlaag: 4.9 m/s
90%
19:00
16°
1019.7 hPa
44%
11.4°
2
Windvlaag: 5.3 m/s
58%
20:00
16°
1019.9 hPa
32%
13.2°
1
Windvlaag: 5.4 m/s
56%
21:00
13°
1017.7 hPa 30.9 mm
100%
11.1°
3
Windvlaag: 6.5 m/s
20%
22:00
12°
1017.9 hPa 30.9 mm
100%
10.1°
3
Windvlaag: 5.1 m/s
28%
23:00
12°
1017.8 hPa 30.9 mm
100%
9.8°
3
Windvlaag: 4.9 m/s
29%
Temp/Neerslag /Baro Onweer/Dauwpunt
    Temp Baro Neerslag Dauwpunt Wind Bewolking  
 06:35     20:38    Daglengte: 14:03 Morgen
02:00
15°
1013.1 hPa 5.8 mm 13.3°
1
82%
05:00
14°
1012.8 hPa 9.7 mm 13.1°
1
86%
08:00
14°
1013.1 hPa 17.5 mm 13.6°
1
86%
11:00
16°
1013.4 hPa 16.5 mm 13.8°
2
86%
14:00
17°
1012.9 hPa 15.5 mm 13.3°
3
85% warningclass
17:00
17°
1012.3 hPa 10.2 mm 12.2°
3
82% warningclass
20:00
16°
1013.2 hPa 10.6 mm 12.1°
2
86% warningclass
23:00
15°
1013.8 hPa 10.1 mm 11.6°
2
86%
 06:37     20:36    Daglengte: 13:59 Vrijdag 19 Aug
02:00
15°
1014.2 hPa 15.5 mm 11.7°
2
86% warningclass
05:00
15°
1014.0 hPa 16.5 mm 12.9°
3
86%
08:00
14°
1015.4 hPa 15.6 mm 13.5°
3
76%
11:00
15°
1016.8 hPa 4.9 mm 14.0°
3
64%
14:00
17°
1016.8 hPa   15.2°
5
47%
17:00
18°
1017.3 hPa   10.9°
4
33%
20:00
17°
1018.2 hPa   12.6°
3
23%
23:00
14°
1019.8 hPa 7.8 mm 10.3°
2
25%
 06:38     20:35    Daglengte: 13:57 Zaterdag 20 Aug
02:00
13°
1019.6 hPa 15.5 mm 8.0°
2
7%
05:00
12°
1019.3 hPa   8.9°
2
22%
08:00
13°
1019.9 hPa   12.3°
1
50%
11:00
17°
1019.9 hPa 10.1 mm 15.6°
1
51%
14:00
18°
1019.7 hPa 31.6 mm 14.1°
3
93%
17:00
17°
1019.5 hPa 32.5 mm 11.5°
3
95%
20:00
16°
1019.9 hPa   13.2°
1
56%
23:00
12°
1017.8 hPa 92.8 mm 9.8°
3
29%
 06:39     20:33    Daglengte: 13:54 Zondag 21 Aug
02:00
12°
1017.1 hPa 92.8 mm 10.2°
1
54%
05:00
11°
1017.8 hPa 80.0 mm 9.1°
0
1%
08:00
12°
1017.6 hPa 80.0 mm 10.2°
0
1%
11:00
17°
1017.0 hPa 80.0 mm 8.4°
1
1%
14:00
19°
1015.9 hPa 80.0 mm 7.7°
3
1%
17:00
17°
1016.4 hPa 80.0 mm 7.5°
3
1%
20:00
14°
1016.5 hPa 80.0 mm 9.0°
1
1%
23:00
12°
1017.3 hPa 80.0 mm 8.5°
1
1%
 06:40     20:31    Daglengte: 13:51 Maandag 22 Aug
02:00
11°
1016.8 hPa 80.0 mm 6.8°
1
1%
05:00
11°
1016.7 hPa 80.0 mm 6.8°
1
0%
08:00
12°
1017.1 hPa 80.0 mm 7.6°
2
0%
11:00
18°
1016.5 hPa 80.0 mm 7.9°
3
0%
14:00
20°
1015.9 hPa 80.0 mm 7.8°
4
0%
17:00
21°
1015.4 hPa 80.0 mm 9.6°
4
0%
20:00
16°
1016.1 hPa 80.0 mm 11.4°
2
1%
23:00
14°
1016.9 hPa 80.0 mm 8.4°
2
1%
 06:42     20:29    Daglengte: 13:47 Dinsdag 23 Aug
02:00
12°
1017.2 hPa 80.0 mm 7.8°
2
0%
05:00
11°
1017.5 hPa 80.0 mm 6.7°
2
0%
08:00
13°
1018.0 hPa 80.0 mm 8.0°
2
0%
11:00
19°
1017.2 hPa 80.0 mm 7.6°
4
0%
14:00
21°
1016.4 hPa 80.0 mm 7.1°
5
0%
17:00
21°
1015.8 hPa 80.0 mm 8.0°
5
0%
20:00
16°
1016.7 hPa 80.0 mm 10.1°
2
0%
23:00
13°
1017.7 hPa 80.0 mm 8.1°
2
1%
 06:43     20:27    Daglengte: 13:44 Woensdag 24 Aug
02:00
12°
1017.3 hPa 80.0 mm 7.3°
2
1%
05:00
11°
1017.2 hPa 80.0 mm 7.0°
2
1%
08:00
12°
1017.6 hPa 80.0 mm 7.7°
1
1%
11:00
18°
1016.9 hPa 80.0 mm 8.3°
2
1%
14:00
22°
1015.9 hPa 80.0 mm 8.7°
3
0%
17:00
22°
1015.6 hPa 80.0 mm 9.1°
3
0%
20:00
16°
1016.6 hPa 80.0 mm 11.1°
2
0%
23:00
14°
1017.7 hPa   9.3°
1
0%
 06:44     20:25    Daglengte: 13:41 Donderdag 25 Aug
02:00
12°
1017.7 hPa 160.0 mm 8.9°
1
0%
08:00
13°
1017.8 hPa 160.0 mm 10.3°
1
0%
14:00
24°
1015.8 hPa 160.0 mm 10.6°
0
0%
20:00
19°
1015.8 hPa 160.0 mm 13.4°
1
1%
 06:46     20:24    Daglengte: 13:38 Vrijdag 26 Aug
02:00
15°
1016.8 hPa 160.0 mm 11.0°
1
0%
08:00
16°
1016.5 hPa 160.0 mm 11.9°
1
0%
14:00
25°
1014.2 hPa 160.0 mm 12.0°
1
0%
20:00
20°
1014.3 hPa 160.0 mm 14.7°
0
1%
 06:47     20:22    Daglengte: 13:35 Zaterdag 27 Aug
02:00
15°
1016.4 hPa 162.6 mm 14.2°
2
1%
08:00
16°
1016.3 hPa 165.6 mm 14.5°
1
1%
14:00
23°
1016.3 hPa 167.5 mm 15.7°
1
1%
20:00
18°
1017.7 hPa 0.5 mm 13.4°
1
49%
 06:48     20:20    Daglengte: 13:32 Zondag 28 Aug
02:00
14°
1019.2 hPa 1.5 mm 11.5°
1
58%
08:00
14°
1019.6 hPa 0.8 mm 11.8°
0
57%
14:00
23°
1018.5 hPa 0.5 mm 13.0°
1
40%
20:00
18°
1018.7 hPa 0.7 mm 13.4°
1
51%
 06:50     20:18    Daglengte: 13:28 Maandag 29 Aug
02:00
14°
1020.1 hPa 0.8 mm 11.4°
1
52%
08:00
14°
1020.2 hPa 0.3 mm 11.5°
0
44%
14:00
23°
1019.0 hPa 0.4 mm 12.6°
2
47%
20:00
18°
1018.7 hPa 0.5 mm 12.7°
1
50%
 06:51     20:16    Daglengte: 13:25 Dinsdag 30 Aug
02:00
13°
1019.9 hPa 0.6 mm 10.3°
0
54%
08:00
13°
1019.9 hPa 0.7 mm 10.7°
0
49%
14:00
22°
1018.2 hPa 0.6 mm 12.1°
1
38%
20:00
17°
1017.9 hPa 0.6 mm 12.0°
1
46%
 06:52     20:14    Daglengte: 13:22 Woensdag 31 Aug
02:00
12°
1019.1 hPa 0.7 mm 10.0°
1
38%
08:00
12°
1018.9 hPa 0.4 mm 10.4°
0
50%
14:00
21°
1017.1 hPa 0.7 mm 12.2°
1
51%
20:00
16°
1017.3 hPa 1.2 mm 11.9°
1
48%
 06:54     20:12    Daglengte: 13:18 Donderdag 01 Sep
02:00
12°
1018.7 hPa 1.0 mm 9.5°
0
48%
08:00
11°
1018.9 hPa 0.5 mm 9.4°
0
43%
14:00
21°
1017.4 hPa 0.5 mm 11.1°
1
43%
20:00
15°
1017.6 hPa 0.7 mm 10.9°
1
43%
  CAPE Lifted Index Hail Supercell Tornado SRH 3km CL BTM PRES CL TOP PRES Swiss DWD icon SMHI TS
 06:35     20:38    Daglengte: 14:03 Morgen
00:00 0 J/kg 0.4 K 0 % 0 % 0 % 0 m²/s² 0 0 1.18 3
01:00 0 J/kg -0.2 K 0 % 0 % 0 % 0 m²/s² 0 0 0.25 3
02:00 22 J/kg 0.4 K 0 % 0 % 0 % 0 m²/s² 0 0 0.52 3
03:00 2 J/kg 0.6 K 0 % 0 % 0 % 0 m²/s² 0 0 0.69 3
04:00 20 J/kg 0.5 K 0 % 0 % 0 % 0 m²/s² 0 0 0.89 3
05:00 0 J/kg 1.0 K 0 % 0 % 0 % 0 m²/s² 0 0 2.5 80
06:00 2 J/kg 1.3 K 0 % 0 % 0 % 0 m²/s² 0 0 2.74 80
07:00 1 J/kg 0.9 K 0 % 0 % 0 % 0 m²/s² 0 0 2.34 80
08:00 9 J/kg 0.5 K 0 % 0 % 0 % 0 m²/s² 0 0 1.61 80
09:00 25 J/kg 0.7 K 0 % 0 % 0 % 0 m²/s² 0 0 2.14 3
10:00 66 J/kg 0.3 K 0 % 0 % 0 % 0 m²/s² 0 0 1.8 80
11:00 235 J/kg -0.7 K 0 % 0 % 0 % 0 m²/s² 0 0 0.68 3
12:00 235 J/kg -0.7 K 0 % 0 % 0 % 0 m²/s² 0 0 1.16 80
13:00 191 J/kg -0.6 K 0 % 0 % 0 % 0 m²/s² 0 0 1.86 61
14:00 111 J/kg 0.3 K 0 % 0 % 0 % 0 m²/s² 0 0 3.33 95
15:00 133 J/kg 0.3 K 0 % 0 % 0 % 0 m²/s² 0 0 2.94 80
16:00 96 J/kg 0.1 K 0 % 0 % 0 % 0 m²/s² 0 0 3.7 95
17:00 157 J/kg -0.8 K 0 % 0 % 0 % 0 m²/s² 0 0 3.1 95
18:00 199 J/kg -1.0 K 0 % 0 % 0 % 0 m²/s² 0 0 2.3 95
19:00 97 J/kg 0.3 K 0 % 0 % 0 % 0 m²/s² 0 0 2.64 95
20:00 70 J/kg 0.7 K 0 % 0 % 0 % 0 m²/s² 0 0 2.98 95
21:00 45 J/kg 0.7 K 0 % 0 % 0 % 0 m²/s² 0 0 2.77 80
22:00 37 J/kg 1.2 K 0 % 0 % 0 % 0 m²/s² 0 0 2.58 80
23:00 14 J/kg 1.4 K 0 % 0 % 0 % 0 m²/s² 0 0 2.78 80
 06:37     20:36    Daglengte: 13:59 Vrijdag 19 Aug
00:00 73 J/kg 1.2 K 0 % 0 % 0 % 0 m²/s² 0 0 1.5 80
01:00 25 J/kg 0.9 K 0 % 0 % 0 % 0 m²/s² 0 0 1.35 80
02:00 11 J/kg 0.9 K 0 % 0 % 0 % 0 m²/s² 0 0 1.26 95
03:00 39 J/kg 0.8 K 0 % 0 % 0 % 0 m²/s² 0 0 0.92 95
04:00 17 J/kg 0.9 K 0 % 0 % 0 % 0 m²/s² 0 0 1.08 95
05:00 9 J/kg 0.4 K 0 % 0 % 0 % 0 m²/s² 0 0 0.88 80
06:00 4 J/kg 1.1 K 0 % 0 % 0 % 0 m²/s² 0 0 1.85 95
07:00 2 J/kg 0.9 K 0 % 0 % 0 % 0 m²/s² 0 0 1.77 80
08:00 34 J/kg 0.7 K 0 % 0 % 0 % 0 m²/s² 0 0 1.66 80
09:00 106 J/kg 0.1 K 0 % 0 % 0 % 0 m²/s² 0 0 1.15 80
10:00 99 J/kg 0.0 K 0 % 0 % 0 % 0 m²/s² 0 0 1.38 3
11:00 100 J/kg 0.1 K 0 % 0 % 0 % 0 m²/s² 0 0 1.87 3
12:00 93 J/kg 0.2 K 0 % 0 % 0 % 0 m²/s² 0 0 2.45 3
13:00 80 J/kg 0.1 K 0 % 0 % 0 % 0 m²/s² 0 0 2.71 3
14:00 74 J/kg 0.0 K 0 % 0 % 0 % 0 m²/s² 0 0 2.85 3
15:00 87 J/kg 0.0 K 0 % 0 % 0 % 0 m²/s² 0 0 3.45 3
16:00 119 J/kg -0.1 K 0 % 0 % 0 % 0 m²/s² 0 0 3.65 2
17:00 116 J/kg 0.2 K 0 % 0 % 0 % 0 m²/s² 0 0 3.83 3
18:00 116 J/kg 0.2 K 0 % 0 % 0 % 0 m²/s² 0 0 4.13 2
19:00 118 J/kg 0.4 K 0 % 0 % 0 % 0 m²/s² 0 0 4.75 2
20:00 100 J/kg 0.4 K 0 % 0 % 0 % 0 m²/s² 0 0 4.15 2
21:00 59 J/kg 0.7 K 0 % 0 % 0 % 0 m²/s² 0 0 3.73 1
22:00 3 J/kg 1.6 K 0 % 0 % 0 % 0 m²/s² 0 0 4.54 1
23:00 0 J/kg 2.1 K 0 % 0 % 0 % 0 m²/s² 0 0 4.95 1
 06:38     20:35    Daglengte: 13:57 Zaterdag 20 Aug
00:00 0 J/kg 2.5 K 0 % 0 % 0 % 0 m²/s² 0 0 4.96 2
01:00 0 J/kg 2.6 K 0 % 0 % 0 % 0 m²/s² 0 0 4.64 1
02:00 0 J/kg 3.0 K 0 % 0 % 0 % 0 m²/s² 0 0 4.8 2
03:00 0 J/kg 3.2 K 0 % 0 % 0 % 0 m²/s² 0 0 4.7 3
04:00 4 J/kg 2.8 K 0 % 0 % 0 % 0 m²/s² 0 0 3.85 2
05:00 7 J/kg 2.2 K 0 % 0 % 0 % 0 m²/s² 0 0 3.25 3
06:00 7 J/kg 1.4 K 0 % 0 % 0 % 0 m²/s² 0 0 1.97 1
07:00 4 J/kg 0.5 K 0 % 0 % 0 % 0 m²/s² 0 0 1.07 2
08:00 0 J/kg -0.4 K 0 % 0 % 0 % 0 m²/s² 0 0 -0.4 2
09:00 1 J/kg -1.2 K 0 % 0 % 0 % 0 m²/s² 0 0 -1.2 2
10:00 134 J/kg -1.4 K 0 % 0 % 0 % 0 m²/s² 0 0 -1.4 3
11:00 391 J/kg -1.3 K 0 % 0 % 0 % 0 m²/s² 0 0 -1.12 2
12:00 398 J/kg -1.6 K 0 % 0 % 0 % 0 m²/s² 0 0 -1.3 3
13:00 638 J/kg -2.1 K 0 % 0 % 0 % 0 m²/s² 0 0 -1.2 80
14:00 723 J/kg -2.4 K 0 % 0 % 0 % 0 m²/s² 0 0 -0.36 80
15:00 746 J/kg -2.6 K 0 % 0 % 0 % 0 m²/s² 0 0 0.01 80
16:00 754 J/kg -2.7 K 0 % 0 % 0 % 0 m²/s² 0 0 0.72 95
17:00 661 J/kg -2.5 K 0 % 0 % 0 % 0 m²/s² 0 0 2.66 3
18:00 515 J/kg -2.0 K 0 % 0 % 0 % 0 m²/s² 0 0 3.46 3
19:00 307 J/kg -1.2 K 0 % 0 % 0 % 0 m²/s² 0 0 4.56 3
20:00 245 J/kg -0.9 K 0 % 0 % 0 % 0 m²/s² 0 0 4.68 3
21:00 39 J/kg -0.1 K 0 % 0 % 0 % 0 m²/s² 0 0 5.21
22:00 67 J/kg 0.1 K 0 % 0 % 0 % 0 m²/s² 0 0 4.9
23:00 64 J/kg 0.4 K 0 % 0 % 0 % 0 m²/s² 0 0 6.01
Temp Baro Wind Neerslag
  EWN Forecast EWN WRFDA DWD ICON FMI HIRLAM MET Norway GFS
 06:35     20:38    Daglengte: 14:03 Morgen
02:00 15.2° 1013.1 hPa 1.5 m/s 5.8 mm 13.0° 1014.1 hPa 2.4 m/s 61.8 mm 14.9° 1014.1 hPa 0.9 m/s 4.1 mm 16.1° 1011.2 hPa 1.8 m/s 0.0 mm 12.2° 1014.8 hPa 0.5 m/s
05:00 14.4° 1012.8 hPa 1.2 m/s 9.7 mm 11.7° 1010.9 hPa 0.9 m/s 65.4 mm 14.0° 1013.8 hPa 1.2 m/s 1.5 mm 15.8° 1010.8 hPa 1.3 m/s 0.0 mm 12.1° 1014.7 hPa 0.6 m/s
08:00 14.5° 1013.1 hPa 1.3 m/s 17.5 mm 13.3° 1011.9 hPa 2.3 m/s 66.2 mm 14.2° 1013.7 hPa 0.5 m/s 1.9 mm 15.3° 1011.3 hPa 1.3 m/s 0.0 mm 12.1° 1014.5 hPa 0.9 m/s
11:00 15.8° 1013.4 hPa 2.2 m/s 16.5 mm 16.2° 1012.6 hPa 2.9 m/s 66.3 mm 15.9° 1013.8 hPa 1.3 m/s 1.7 mm 16.6° 1012.0 hPa 2.8 m/s 0.0 mm 15.2° 1014.3 hPa 1.1 m/s
14:00 16.7° 1012.9 hPa 2.9 m/s 15.5 mm 18.5° 1010.2 hPa 5.3 m/s 67.0 mm 16.5° 1013.3 hPa 1.3 m/s 2.7 mm 18.5° 1011.1 hPa 3.6 m/s 0.0 mm 17.2° 1013.2 hPa 1.6 m/s
17:00 16.9° 1012.3 hPa 3.0 m/s 10.2 mm 17.8° 1008.7 hPa 5.5 m/s 67.1 mm 16.5° 1013.0 hPa 1.3 m/s 4.5 mm 19.8° 1009.8 hPa 4.6 m/s 0.0 mm 16.6° 1013.0 hPa 1.7 m/s
20:00 15.9° 1013.2 hPa 2.4 m/s 10.6 mm 15.7° 1010.4 hPa 3.7 m/s 67.2 mm 15.5° 1013.9 hPa 1.0 m/s 6.0 mm 18.8° 1010.3 hPa 4.1 m/s 0.0 mm 14.5° 1013.9 hPa 1.2 m/s
23:00 15.0° 1013.8 hPa 2.4 m/s 10.1 mm 13.7° 1011.0 hPa 3.7 m/s 67.7 mm 14.8° 1014.4 hPa 0.6 m/s 2.5 mm 17.7° 1011.3 hPa 4.3 m/s 0.0 mm 13.4° 1014.3 hPa 0.9 m/s
 06:37     20:36    Daglengte: 13:59 Vrijdag 19 Aug
02:00 14.6° 1014.2 hPa 2.5 m/s 15.5 mm 14.1° 1011.4 hPa 4.6 m/s 67.9 mm 14.6° 1015.1 hPa 0.7 m/s 3.4 mm 15.8° 1011.9 hPa 4.6 m/s 0.0 mm 12.9° 1013.7 hPa 1.1 m/s
05:00 14.6° 1014.0 hPa 2.5 m/s 16.5 mm 13.7° 1011.4 hPa 4.6 m/s 67.9 mm 14.9° 1014.6 hPa 1.3 m/s 4.7 mm 14.9° 1012.0 hPa 5.4 m/s 0.0 mm 12.6° 1014.0 hPa 1.4 m/s
08:00 14.5° 1015.4 hPa 2.7 m/s 15.6 mm 14.2° 1012.7 hPa 5.2 m/s 68.0 mm 14.9° 1016.3 hPa 2.1 m/s 3.5 mm 14.6° 1013.3 hPa 4.5 m/s 0.0 mm 12.8° 1015.5 hPa 1.4 m/s
11:00 15.1° 1016.8 hPa 3.3 m/s 4.9 mm 17.1° 1014.2 hPa 7.1 m/s 68.0 mm 15.6° 1017.6 hPa 2.8 m/s 0.5 mm 14.9° 1015.0 hPa 4.4 m/s 0.0 mm 16.0° 1016.4 hPa 1.0 m/s
14:00 17.4° 1016.8 hPa 4.6 m/s 0.0 mm 19.3° 1014.5 hPa 7.7 m/s 68.0 mm 17.3° 1018.2 hPa 4.0 m/s 0.0 mm 16.1° 1015.2 hPa 4.7 m/s 0.0 mm 17.6° 1016.3 hPa 1.5 m/s
17:00 18.5° 1017.3 hPa 4.3 m/s 0.0 mm 19.9° 1014.9 hPa 6.2 m/s 68.0 mm 18.1° 1018.2 hPa 3.3 m/s 0.0 mm 17.3° 1016.6 hPa 1.4 m/s
20:00 16.6° 1018.2 hPa 2.5 m/s 0.0 mm 16.9° 1016.0 hPa 2.5 m/s 68.0 mm 16.7° 1019.1 hPa 1.2 m/s 0.0 mm 15.3° 1017.3 hPa 0.6 m/s
23:00 13.8° 1019.8 hPa 1.8 m/s 7.8 mm 13.3° 1017.3 hPa 3.2 m/s 68.0 mm 13.7° 1020.6 hPa 1.0 m/s 0.0 mm 13.0° 1018.9 hPa 0.9 m/s
 06:38     20:35    Daglengte: 13:57 Zaterdag 20 Aug
02:00 13.0° 1019.6 hPa 1.9 m/s 15.5 mm 12.8° 1017.3 hPa 3.4 m/s 68.0 mm 12.7° 1020.6 hPa 1.2 m/s 0.0 mm 12.7° 1018.6 hPa 0.9 m/s
05:00 12.4° 1019.3 hPa 1.6 m/s 0.0 mm 11.7° 1016.9 hPa 2.8 m/s 68.0 mm 13.3° 1020.0 hPa 1.1 m/s 0.0 mm 12.6° 1018.4 hPa 1.1 m/s
08:00 12.8° 1019.9 hPa 1.5 m/s 0.0 mm 12.6° 1017.8 hPa 4.4 m/s 68.9 mm 13.9° 1020.7 hPa 0.9 m/s 0.0 mm 13.7° 1018.6 hPa 1.3 m/s
11:00 16.7° 1019.9 hPa 1.0 m/s 10.1 mm 14.7° 1018.9 hPa 0.7 m/s 86.8 mm 17.5° 1020.3 hPa 0.9 m/s 0.4 mm 15.9° 1018.8 hPa 1.2 m/s
14:00 18.3° 1019.7 hPa 2.5 m/s 31.6 mm 17.8° 1018.2 hPa 3.3 m/s 92.2 mm 18.4° 1020.1 hPa 2.3 m/s 1.3 mm 17.6° 1018.4 hPa 1.2 m/s
17:00 17.0° 1019.5 hPa 2.6 m/s 32.5 mm 18.7° 1017.7 hPa 4.3 m/s 92.8 mm 16.5° 1020.0 hPa 2.2 m/s 2.4 mm 16.7° 1018.3 hPa 1.9 m/s
20:00 15.5° 1019.9 hPa 1.1 m/s 0.0 mm 15.0° 1017.7 hPa 2.6 m/s 92.8 mm 15.7° 1020.5 hPa 0.7 m/s 0.0 mm 14.3° 1019.1 hPa 1.4 m/s
23:00 11.6° 1017.8 hPa 2.7 m/s 92.8 mm 11.6° 1017.8 hPa 2.7 m/s 92.8 mm 12.0° 1019.9 hPa 0.3 m/s
 06:39     20:33    Daglengte: 13:54 Zondag 21 Aug
02:00 12.5° 1017.1 hPa 1.4 m/s 92.8 mm 12.5° 1017.1 hPa 1.4 m/s 92.8 mm 11.1° 1019.0 hPa 0.3 m/s
05:00 10.6° 1017.8 hPa 0.1 m/s 80.0 mm 10.6° 1017.8 hPa 0.1 m/s 80.0 mm
08:00 11.9° 1017.6 hPa 0.2 m/s 80.0 mm 11.9° 1017.6 hPa 0.2 m/s 80.0 mm
11:00 17.5° 1017.0 hPa 1.3 m/s 80.0 mm 17.5° 1017.0 hPa 1.3 m/s 80.0 mm
14:00 19.3° 1015.9 hPa 2.7 m/s 80.0 mm 19.3° 1015.9 hPa 2.7 m/s 80.0 mm
17:00 16.9° 1016.4 hPa 2.5 m/s 80.0 mm 16.8° 1016.4 hPa 2.5 m/s 80.0 mm
20:00 14.3° 1016.5 hPa 0.8 m/s 80.0 mm 14.3° 1016.5 hPa 0.8 m/s 80.0 mm
23:00 12.2° 1017.3 hPa 0.7 m/s 80.0 mm 12.2° 1017.3 hPa 0.7 m/s 80.0 mm
 06:40     20:31    Daglengte: 13:51 Maandag 22 Aug
02:00 11.0° 1016.8 hPa 0.9 m/s 80.0 mm 11.0° 1016.8 hPa 0.9 m/s 80.0 mm
05:00 10.6° 1016.7 hPa 1.3 m/s 80.0 mm 10.6° 1016.7 hPa 1.3 m/s 80.0 mm
08:00 11.9° 1017.1 hPa 1.5 m/s 80.0 mm 11.9° 1017.1 hPa 1.5 m/s 80.0 mm
11:00 17.8° 1016.5 hPa 3.1 m/s 80.0 mm 17.8° 1016.5 hPa 3.1 m/s 80.0 mm
14:00 20.5° 1015.9 hPa 3.6 m/s 80.0 mm 20.5° 1015.9 hPa 3.6 m/s 80.0 mm
17:00 20.6° 1015.4 hPa 4.0 m/s 80.0 mm 20.6° 1015.4 hPa 4.0 m/s 80.0 mm
20:00 15.9° 1016.1 hPa 1.9 m/s 80.0 mm 15.9° 1016.1 hPa 1.9 m/s 80.0 mm
23:00 14.4° 1016.9 hPa 2.1 m/s 80.0 mm 14.4° 1016.9 hPa 2.1 m/s 80.0 mm
 06:42     20:29    Daglengte: 13:47 Dinsdag 23 Aug
02:00 12.0° 1017.2 hPa 1.6 m/s 80.0 mm 12.0° 1017.2 hPa 1.6 m/s 80.0 mm
05:00 11.5° 1017.5 hPa 1.8 m/s 80.0 mm 11.5° 1017.5 hPa 1.8 m/s 80.0 mm
08:00 12.7° 1018.0 hPa 2.0 m/s 80.0 mm 12.7° 1018.0 hPa 2.0 m/s 80.0 mm
11:00 18.9° 1017.2 hPa 4.4 m/s 80.0 mm 18.9° 1017.2 hPa 4.4 m/s 80.0 mm
14:00 21.3° 1016.4 hPa 4.7 m/s 80.0 mm 21.3° 1016.4 hPa 4.7 m/s 80.0 mm
17:00 21.1° 1015.8 hPa 4.6 m/s 80.0 mm 21.1° 1015.8 hPa 4.6 m/s 80.0 mm
20:00 15.9° 1016.7 hPa 2.2 m/s 80.0 mm 15.9° 1016.7 hPa 2.2 m/s 80.0 mm
23:00 13.3° 1017.7 hPa 2.1 m/s 80.0 mm 13.3° 1017.7 hPa 2.1 m/s 80.0 mm
 06:43     20:27    Daglengte: 13:44 Woensdag 24 Aug
02:00 12.0° 1017.3 hPa 2.1 m/s 80.0 mm 12.0° 1017.3 hPa 2.1 m/s 80.0 mm
05:00 11.1° 1017.2 hPa 1.8 m/s 80.0 mm 11.1° 1017.2 hPa 1.8 m/s 80.0 mm
08:00 12.1° 1017.6 hPa 1.4 m/s 80.0 mm 12.1° 1017.6 hPa 1.4 m/s 80.0 mm
11:00 18.0° 1016.9 hPa 2.3 m/s 80.0 mm 18.0° 1016.9 hPa 2.3 m/s 80.0 mm
14:00 21.5° 1015.9 hPa 2.9 m/s 80.0 mm 21.5° 1015.9 hPa 2.9 m/s 80.0 mm
17:00 22.0° 1015.6 hPa 2.7 m/s 80.0 mm 22.0° 1015.6 hPa 2.7 m/s 80.0 mm
20:00 16.3° 1016.6 hPa 1.7 m/s 80.0 mm 16.3° 1016.6 hPa 1.7 m/s 80.0 mm
23:00 13.6° 1017.7 hPa 1.4 m/s 80.0 mm 13.6° 1017.7 hPa 1.4 m/s 80.0 mm
 06:44     20:25    Daglengte: 13:41 Donderdag 25 Aug
02:00 12.4° 1017.7 hPa 1.0 m/s 80.0 mm 12.4° 1017.7 hPa 1.0 m/s 80.0 mm
08:00 13.3° 1017.8 hPa 0.9 m/s 80.0 mm 13.3° 1017.8 hPa 0.9 m/s 80.0 mm
14:00 24.0° 1015.8 hPa 0.2 m/s 80.0 mm 24.0° 1015.8 hPa 0.2 m/s 80.0 mm
20:00 18.9° 1015.8 hPa 1.0 m/s 80.0 mm 18.9° 1015.8 hPa 1.0 m/s 80.0 mm
 06:46     20:24    Daglengte: 13:38 Vrijdag 26 Aug
02:00 15.0° 1016.8 hPa 0.7 m/s 80.0 mm 15.0° 1016.8 hPa 0.7 m/s 80.0 mm
08:00 15.5° 1016.5 hPa 0.9 m/s 80.0 mm 15.5° 1016.5 hPa 0.9 m/s 80.0 mm
14:00 25.5° 1014.2 hPa 0.6 m/s 80.0 mm 25.5° 1014.2 hPa 0.6 m/s 80.0 mm
20:00 19.8° 1014.3 hPa 0.4 m/s 80.0 mm 19.8° 1014.3 hPa 0.4 m/s 80.0 mm
 06:47     20:22    Daglengte: 13:35 Zaterdag 27 Aug
02:00 14.8° 1016.4 hPa 2.4 m/s 81.9 mm 14.8° 1016.4 hPa 2.4 m/s 81.9 mm
08:00 15.8° 1016.3 hPa 0.5 m/s 82.8 mm 15.8° 1016.3 hPa 0.5 m/s 82.8 mm
14:00 23.0° 1016.3 hPa 0.6 m/s 84.6 mm 23.0° 1016.3 hPa 0.6 m/s 84.6 mm
20:00 18.5° 1017.7 hPa 1.5 m/s 0.5 mm
 06:48     20:20    Daglengte: 13:32 Zondag 28 Aug
02:00 13.8° 1019.2 hPa 0.7 m/s 1.5 mm
08:00 13.6° 1019.6 hPa 0.5 m/s 0.8 mm
14:00 23.4° 1018.5 hPa 1.2 m/s 0.5 mm
20:00 18.3° 1018.7 hPa 1.3 m/s 0.7 mm
 06:50     20:18    Daglengte: 13:28 Maandag 29 Aug
02:00 13.7° 1020.1 hPa 0.5 m/s 0.8 mm
08:00 13.6° 1020.2 hPa 0.3 m/s 0.3 mm
14:00 22.9° 1019.0 hPa 1.5 m/s 0.4 mm
20:00 17.5° 1018.7 hPa 1.4 m/s 0.5 mm
 06:51     20:16    Daglengte: 13:25 Dinsdag 30 Aug
02:00 12.9° 1019.9 hPa 0.3 m/s 0.6 mm
08:00 12.8° 1019.9 hPa 0.3 m/s 0.7 mm
14:00 22.1° 1018.2 hPa 1.3 m/s 0.6 mm
20:00 17.0° 1017.9 hPa 1.3 m/s